{"data":{"norad_id":68350,"epoch":"2026-09-19T01:45:04.359168Z","epoch_age_seconds":195584,"freshness":"STALE","line1":"1 68350U 26060A   26262.07296712 -.00000385  00000+0 -10720-3 0  9998","line2":"2 68350  54.9839  31.9647 0005908 271.1674  88.8624 14.20025378 26323","mean_motion":14.20025378,"eccentricity":0.0005908,"inclination_deg":54.9839,"raan_deg":31.9647,"arg_perigee_deg":271.1674,"mean_anomaly_deg":88.8624,"bstar":-0.0001072,"rev_number":2632,"period_min":101.40663838192,"perigee_km":821.01119574066,"apogee_km":829.52273786784,"semimajor_km":7203.4039668042,"source":"CELESTRAK","updated_at":"2026-09-20T09:00:24.158083Z"}}